Location: Acts Church of Fort Worth
(32.6786°N, 97.2668°W)
Time: 09:30:45
(UTC+00:00)

Cosmos 1656 - Pass Details

Date: 18 January 2026
Orbit: 797 x 847 km, 71.1° (Epoch: 9 February)

Event Time Altitude Azimuth Distance (km) Brightness Sun altitude
Rises 01:16:14 0° 338° (NNW) 3,371 6.9 -18.4°
Reaches altitude 10° 01:18:41 10° 338° (NNW) 2,427 6.2 -18.9°
Maximum altitude 01:24:15 82° 251° (WSW) 826 3.6 -20.1°
Drops below altitude 10° 01:29:41 10° 165° (SSE) 2,380 6.0 -21.2°
Sets 01:32:05 0° 164° (SSE) 3,301 6.7 -21.7°
